Wind from 223 at 8 knots gusting 8

Air temperature 16.1° C
Dewpoint 10.0° C

Last reported at 2014-Apr-24 18:50 UTC.
Time now 2014-Apr-24 19:58 UTC

Location: N 38°02' E 014°02'.
View on Google Maps.

See reports from other nearby stations

Tides Stations Pressure Air Temp Water Temp Dewpoint Dewpoint depression Visibility Wind Speed Wind Dir Waves Ship positions

  
sailing weather and tide predictions

DW2770 Cefalu IT weather

date/time (UTC)wind fromknots sea level pressurealtimeterstation pressurevisibilityair tempwater tempwave heightnotes
2014-Apr-24 18:50 223 8 gusting 8 16.1
2014-Apr-24 18:40 225 5 gusting 7 16.1
2014-Apr-24 18:30 212 5 gusting 7 16.1
2014-Apr-24 18:20 225 7 gusting 10 16.7
2014-Apr-24 18:10 248 6 gusting 11 16.7
2014-Apr-24 18:00 225 8 gusting 11 16.7
2014-Apr-24 17:50 241 6 gusting 11 16.7
2014-Apr-24 17:40 202 8 gusting 11 17.2
2014-Apr-24 17:30 202 6 gusting 10 17.2
2014-Apr-24 17:20 225 7 gusting 12 17.2
2014-Apr-24 17:10 225 6 gusting 17 17.8
2014-Apr-24 17:00 202 6 gusting 13 17.8
2014-Apr-24 16:50 233 5 gusting 12 17.8
2014-Apr-24 16:40 270 6 gusting 11 17.8
2014-Apr-24 16:30 225 10 gusting 11 17.8
2014-Apr-24 16:20 258 7 gusting 10 17.8
2014-Apr-24 16:10 202 8 gusting 13 17.8
2014-Apr-24 16:00 248 11 gusting 12 17.8
2014-Apr-24 15:50 202 12 gusting 15 17.8
2014-Apr-24 15:40 248 11 gusting 12 17.8
2014-Apr-24 15:30 248 12 gusting 14 17.2
2014-Apr-24 15:20 248 12 gusting 14 17.2
2014-Apr-24 15:10 252 7 gusting 8 17.8
2014-Apr-24 15:00 270 7 gusting 7 17.8
2014-Apr-24 14:50 304 6 gusting 11 18.3
2014-Apr-24 14:40 248 3 gusting 10 18.3
2014-Apr-24 14:30 270 7 gusting 11 18.3
2014-Apr-24 14:20 315 1 gusting 8 18.3
2014-Apr-24 14:10 292 8 gusting 13 17.8
2014-Apr-24 14:00 292 5 gusting 7 18.3
2014-Apr-24 13:50 251 3 gusting 10 18.3
2014-Apr-24 13:40 292 6 gusting 8 18.3
2014-Apr-24 13:30 270 5 gusting 8 18.3
2014-Apr-24 13:20 233 8 gusting 13 18.3
2014-Apr-24 13:10 270 10 gusting 12 18.3
2014-Apr-24 13:00 225 7 gusting 8 18.3
2014-Apr-24 12:50 299 8 gusting 13 18.3
2014-Apr-24 12:40 248 8 gusting 8 18.3
2014-Apr-24 12:30 270 6 gusting 12 18.3
2014-Apr-24 12:20 250 6 gusting 13 18.3
2014-Apr-24 12:10 180 6 gusting 12 18.3
2014-Apr-24 12:00 315 7 gusting 10 18.3
2014-Apr-24 11:50 286 9 gusting 10 18.3
2014-Apr-24 11:40 292 6 gusting 8 18.3
2014-Apr-24 11:30 292 9 gusting 11 18.3
2014-Apr-24 11:20 266 10 gusting 14 17.8
2014-Apr-24 11:10 292 3 gusting 13 18.3
2014-Apr-24 11:00 248 11 gusting 13 17.8
2014-Apr-24 10:50 300 5 gusting 11 17.8
2014-Apr-24 10:40 272 10 gusting 11 17.8
2014-Apr-24 10:30 246 5 gusting 8 17.8
2014-Apr-24 10:20 251 7 gusting 10 17.8
2014-Apr-24 10:10 292 6 gusting 10 17.8
2014-Apr-24 10:00 270 10 gusting 13 17.8
2014-Apr-24 09:50 286 6 gusting 13 17.8
2014-Apr-24 09:40 270 8 gusting 8 17.8
2014-Apr-24 09:30 270 7 gusting 11 17.8
2014-Apr-24 09:20 257 9 gusting 12 17.2
2014-Apr-24 09:10 202 11 gusting 13 17.2
2014-Apr-24 09:00 270 8 gusting 13 17.2
2014-Apr-24 08:50 270 6 gusting 8 17.2
2014-Apr-24 08:40 302 6 gusting 8 17.2
2014-Apr-24 08:30 225 6 gusting 11 17.2
2014-Apr-24 08:20 202 6 gusting 11 17.2
2014-Apr-24 08:10 225 11 gusting 11 17.2
2014-Apr-24 08:00 17.2
2014-Apr-24 07:50 338 5 gusting 11 17.2
2014-Apr-24 07:40 235 10 gusting 19 17.2
2014-Apr-24 07:10 217 7 gusting 14 17.2
2014-Apr-24 07:00 248 14 gusting 19 16.7
2014-Apr-24 06:50 270 10 gusting 13 16.7
2014-Apr-24 06:40 248 10 gusting 19 16.7
2014-Apr-24 06:30 248 15 gusting 19 16.7
2014-Apr-24 06:20 202 15 gusting 19 16.7
2014-Apr-24 06:10 227 13 gusting 17 16.7
2014-Apr-24 06:00 248 8 gusting 15 16.7
2014-Apr-24 05:50 248 14 gusting 19 16.7
2014-Apr-24 05:40 225 13 gusting 17 16.1
2014-Apr-24 05:30 225 11 gusting 17 16.1
2014-Apr-24 05:20 240 16 gusting 17 16.1
2014-Apr-24 05:10 248 15 gusting 18 16.1
2014-Apr-24 05:00 248 14 gusting 14 16.1
2014-Apr-24 04:50 225 13 gusting 17 16.1
2014-Apr-24 04:40 202 16 gusting 17 16.1
2014-Apr-24 04:30 180 11 gusting 18 15.6
2014-Apr-24 04:20 225 14 gusting 18 16.1
2014-Apr-24 04:10 225 11 gusting 15 15.6
2014-Apr-24 04:00 248 13 gusting 14 15.6
2014-Apr-24 03:50 239 10 gusting 17 15.6
2014-Apr-24 03:40 226 13 gusting 17 15.6
2014-Apr-24 03:30 225 12 gusting 15 15.6
2014-Apr-24 03:20 225 9 gusting 17 15.6
2014-Apr-24 03:10 244 10 gusting 13 15.6
2014-Apr-24 03:00 225 13 gusting 15 15.6
2014-Apr-24 02:50 221 13 gusting 15 15.6
2014-Apr-24 02:40 199 10 gusting 13 15.6
2014-Apr-24 02:30 202 11 gusting 15 15.6
2014-Apr-24 02:20 219 13 gusting 14 15.6
2014-Apr-24 02:10 231 13 gusting 15 15.6
2014-Apr-24 02:00 225 12 gusting 12 15.6
2014-Apr-24 01:50 248 10 gusting 13 15.6
2014-Apr-24 01:40 248 8 gusting 15 15.6
2014-Apr-24 01:30 270 10 gusting 17 15.6
2014-Apr-24 01:20 227 13 gusting 13 15.6
2014-Apr-24 01:10 226 9 gusting 13 15.6
2014-Apr-24 01:00 202 11 gusting 13 15.6
2014-Apr-24 00:50 242 13 gusting 13 15.6
2014-Apr-24 00:40 265 8 gusting 13 15.6
2014-Apr-24 00:30 202 10 gusting 14 15.6
2014-Apr-24 00:20 232 14 gusting 14 15.6
2014-Apr-24 00:10 268 11 gusting 18 15.6
2014-Apr-24 00:00 225 14 gusting 18 15.6
2014-Apr-23 23:50 248 14 gusting 15 15.6
2014-Apr-23 23:40 225 9 gusting 13 15.6
2014-Apr-23 23:30 225 7 gusting 13 15.6
2014-Apr-23 23:20 225 13 gusting 17 15.6
2014-Apr-23 23:10 225 11 gusting 13 15.6
2014-Apr-23 23:00 248 12 gusting 14 15.0
2014-Apr-23 22:50 270 7 gusting 13 15.0
2014-Apr-23 22:40 225 6 gusting 12 15.0
2014-Apr-23 22:30 292 6 gusting 13 15.6
2014-Apr-23 22:20 210 13 gusting 13 15.0
2014-Apr-23 22:09 202 5 gusting 8 15.6
2014-Apr-23 22:00 292 5 gusting 6 15.6
2014-Apr-23 21:50 250 4 gusting 12 15.6
2014-Apr-23 21:40 292 10 gusting 17 15.6
2014-Apr-23 21:30 270 7 gusting 17 15.6
2014-Apr-23 21:20 213 14 gusting 18 15.6
2014-Apr-23 21:10 270 10 gusting 13 15.6
2014-Apr-23 21:00 225 12 gusting 13 15.6
2014-Apr-23 20:50 248 9 gusting 17 15.6
2014-Apr-23 20:40 202 13 gusting 17 15.6
2014-Apr-23 20:30 248 10 gusting 14 15.6
2014-Apr-23 20:20 238 11 gusting 13 15.0
2014-Apr-23 20:10 248 11 gusting 12 15.0
2014-Apr-23 20:00 225 9 gusting 14 15.0
2014-Apr-23 19:50 214 14 gusting 17 15.0
2014-Apr-23 19:40 202 12 gusting 13 15.0
2014-Apr-23 19:30 248 7 gusting 14 15.0
2014-Apr-23 19:20 248 14 gusting 14 15.0
2014-Apr-23 19:10 202 10 gusting 12 15.0
2014-Apr-23 19:00 225 5 gusting 13 15.0
2014-Apr-23 18:50 248 12 gusting 14 15.0
2014-Apr-23 18:40 225 13 gusting 14 15.0
2014-Apr-23 18:30 292 12 gusting 15 15.0
2014-Apr-23 18:20 176 5 gusting 14 15.0
2014-Apr-23 18:10 248 14 gusting 14 15.0
2014-Apr-23 18:00 248 11 gusting 15 15.0
2014-Apr-23 17:50 235 6 gusting 13 15.0
2014-Apr-23 17:40 225 8 gusting 12 15.0
2014-Apr-23 17:30 248 6 gusting 14 15.6
2014-Apr-23 17:20 236 7 gusting 14 15.6
2014-Apr-23 17:10 248 6 gusting 18 15.6
2014-Apr-23 17:00 225 11 gusting 13 15.6
2014-Apr-23 16:50 225 10 gusting 13 15.6
2014-Apr-23 16:40 270 12 gusting 13 15.6
2014-Apr-23 16:30 202 8 gusting 13 15.6
2014-Apr-23 16:20 248 10 gusting 11 15.6
2014-Apr-23 16:10 225 10 gusting 13 15.6
2014-Apr-23 16:00 248 7 gusting 12 15.6
2014-Apr-23 15:50 213 10 gusting 11 15.6
2014-Apr-23 15:40 225 11 gusting 13 15.6
2014-Apr-23 15:30 202 10 gusting 11 15.6
2014-Apr-23 15:20 225 11 gusting 12 15.6
2014-Apr-23 15:10 248 12 gusting 13 15.6
2014-Apr-23 15:00 158 7 gusting 13 15.6
2014-Apr-23 14:50 248 11 gusting 12 15.0
2014-Apr-23 14:40 225 8 gusting 13 15.0
2014-Apr-23 14:30 225 7 gusting 13 15.0
2014-Apr-23 14:20 212 12 gusting 15 15.0
2014-Apr-23 14:10 202 7 gusting 15 15.0
2014-Apr-23 14:00 292 6 gusting 8 15.0
2014-Apr-23 13:50 259 8 gusting 10 15.0
2014-Apr-23 13:40 225 5 gusting 10 15.0
2014-Apr-23 13:30 248 6 gusting 7 15.0
2014-Apr-23 13:20 266 4 gusting 10 15.0
2014-Apr-23 13:10 270 6 gusting 10 15.0
2014-Apr-23 13:00 315 9 gusting 11 15.0
2014-Apr-23 12:50 270 5 gusting 8 15.0
2014-Apr-23 12:40 270 5 gusting 6 15.0
2014-Apr-23 12:30 270 3 gusting 8 15.0
2014-Apr-23 12:20 215 5 gusting 8 15.0
2014-Apr-23 12:10 202 7 gusting 8 15.0
2014-Apr-23 12:00 180 5 gusting 11 15.0
2014-Apr-23 11:50 238 3 gusting 7 15.0
2014-Apr-23 11:40 270 2 gusting 12 15.0
2014-Apr-23 11:30 292 4 gusting 12 15.0
2014-Apr-23 11:20 225 11 gusting 14 15.0
2014-Apr-23 11:10 225 10 gusting 14 15.0
2014-Apr-23 11:00 225 5 gusting 8 15.0
2014-Apr-23 10:50 246 4 gusting 10 15.0
2014-Apr-23 10:40 270 6 gusting 12 15.0
2014-Apr-23 10:30 248 5 gusting 6 15.0
2014-Apr-23 10:20 221 4 gusting 7 15.0
2014-Apr-23 10:10 292 7 gusting 11 15.0
2014-Apr-23 10:00 202 8 gusting 11 15.6
2014-Apr-23 09:50 225 7 gusting 14 15.6
2014-Apr-23 09:40 225 10 gusting 14 15.6
2014-Apr-23 09:30 226 5 gusting 10 15.6
2014-Apr-23 09:20 240 6 gusting 13 15.6
2014-Apr-23 09:10 248 5 gusting 6 15.6
2014-Apr-23 09:00 270 6 gusting 6 15.0
2014-Apr-23 08:50 235 2 gusting 7 15.0
2014-Apr-23 08:40 248 2 gusting 6 15.0
2014-Apr-23 08:30 225 1 gusting 11 15.0
2014-Apr-23 08:20 250 4 gusting 11 15.0
2014-Apr-23 08:10 225 7 gusting 7 15.0
2014-Apr-23 08:00 248 7 gusting 10 15.0
2014-Apr-23 07:50 198 8 gusting 11 15.0
2014-Apr-23 07:40 202 9 gusting 10 15.0
2014-Apr-23 07:30 225 6 gusting 6 15.0
2014-Apr-23 07:20 224 4 gusting 7 15.0
2014-Apr-23 07:10 248 5 gusting 11 14.4
2014-Apr-23 07:00 270 8 gusting 13 14.4
2014-Apr-23 06:50 232 7 gusting 13 14.4
2014-Apr-23 06:40 270 8 gusting 11 14.4
2014-Apr-23 06:30 202 9 gusting 10 13.9
2014-Apr-23 06:20 240 6 gusting 11 13.9
2014-Apr-23 06:10 225 4 gusting 11 14.4
2014-Apr-23 06:00 315 6 gusting 7 15.0
2014-Apr-23 05:50 253 7 gusting 7 15.0
2014-Apr-23 05:40 180 3 gusting 5 15.0
2014-Apr-23 05:30 225 2 gusting 5 15.0
2014-Apr-23 05:20 202 2 gusting 5 15.0
2014-Apr-23 05:10 248 4 gusting 5 15.0
2014-Apr-23 05:00 270 1 gusting 2 15.0
2014-Apr-23 04:50 271 15.0
2014-Apr-23 04:40 202 0 gusting 1 15.0
2014-Apr-23 04:30 225 0 gusting 1 15.0
2014-Apr-23 04:20 202 1 gusting 1 15.0
2014-Apr-23 04:10 225 1 gusting 1 15.0
2014-Apr-23 04:00 225 15.0
2014-Apr-23 03:50 202 2 gusting 2 15.0
2014-Apr-23 03:40 225 0 gusting 2 15.0
2014-Apr-23 03:30 068 0 gusting 2 15.6
2014-Apr-23 03:20 202 2 gusting 2 15.6
2014-Apr-23 03:10 202 2 gusting 4 15.6
2014-Apr-23 03:00 202 3 gusting 5 15.6
2014-Apr-23 02:50 225 2 gusting 4 16.1
2014-Apr-23 02:40 225 2 gusting 2 15.6
2014-Apr-23 02:30 225 1 gusting 4 15.6
2014-Apr-23 02:20 248 1 gusting 1 15.6
2014-Apr-23 02:10 292 1 gusting 1 15.6
2014-Apr-23 02:00 292 15.6
2014-Apr-23 01:50 202 1 gusting 1 15.6
2014-Apr-23 01:40 180 1 gusting 1 15.6
2014-Apr-23 01:30 225 1 gusting 2 15.6
2014-Apr-23 01:20 237 1 gusting 2 16.1
2014-Apr-23 01:10 225 3 gusting 4 16.1
2014-Apr-23 01:00 292 16.1
2014-Apr-23 00:50 215 16.1
2014-Apr-23 00:40 090 16.1
2014-Apr-23 00:30 202 16.1
2014-Apr-23 00:20 168 16.1
2014-Apr-23 00:10 135 16.1
2014-Apr-23 00:00 135 16.1
2014-Apr-22 23:50 090 16.7
2014-Apr-22 23:40 130 17.2
2014-Apr-22 23:30 202 1 gusting 1 17.2
2014-Apr-22 23:20 202 17.8
2014-Apr-22 23:10 202 1 gusting 6 17.8
2014-Apr-22 23:00 248 6 gusting 8 17.8
2014-Apr-22 22:50 202 6 gusting 10 17.8
2014-Apr-22 22:40 180 5 gusting 10 17.2
2014-Apr-22 22:30 180 10 gusting 10 17.2
2014-Apr-22 22:20 212 7 gusting 7 17.2
2014-Apr-22 22:10 202 7 gusting 13 17.2
2014-Apr-22 22:00 202 10 gusting 13 17.2
2014-Apr-22 21:50 202 12 gusting 17 17.2
2014-Apr-22 21:40 202 7 gusting 10 17.2
2014-Apr-22 21:30 225 6 gusting 8 17.2
2014-Apr-22 21:20 240 8 gusting 8 16.7
2014-Apr-22 21:10 270 3 gusting 7 17.2
2014-Apr-22 21:00 225 2 gusting 4 17.8
2014-Apr-22 20:50 225 2 gusting 4 18.3
2014-Apr-22 20:40 225 2 gusting 2 18.9
2014-Apr-22 20:30 225 0 gusting 1 18.9
2014-Apr-22 20:20 202 1 gusting 2 18.9
2014-Apr-22 20:10 202 1 gusting 4 19.4
2014-Apr-22 20:00 202 1 gusting 5 20.0
2014-Apr-22 19:50 218 5 gusting 6 20.0
2014-Apr-22 19:40 202 5 gusting 6 19.4
2014-Apr-22 19:30 202 6 gusting 10 19.4
2014-Apr-22 19:20 188 8 gusting 10 19.4
2014-Apr-22 19:10 205 5 gusting 6 18.9
2014-Apr-22 19:00 180 2 gusting 6 18.3